Location: *
(43.4667°N, 11.6833°E)
Time: 21:59:52
(UTC+00:00)

Okean 1-7 - Pass Details

Date: 19 July 2019
Orbit: 592 x 618 km, 82.5° (Epoch: 24 August)

Event Time Altitude Azimuth Distance (km) Brightness Sun altitude
Rises 22:47:55 0° 352° (N) 2,854 7.9 -25.4°
Reaches altitude 10° 22:50:08 10° 354° (N) 1,951 6.7 -25.4°
Enters shadow 22:53:59 69° 14° (NNE) 648 3.2 -25.5°
